When you browse on this site, cookies collect data to enhance your experience and personalize the content and advertising you see.
Visit our Privacy Policy to learn more. By continuing to use the site, you agree to this use of cookies and data.
  • In Romania
  • List of Countries
  • For 7 days
  • Water Temperature
  • Satellite Maps
  • Weather Map
  • Weather Widgets
  • user-avatar
    Login

    Hourly Weather Grecheskoe

    Today, 20 January, Sunday

    Time Temperature Precipitation Wind Pressure Humidity
    00:00 +4°C° 0 mm 1 mps 732 mmHg 40%
    01:00 +4°C° 0 mm 1 mps 732 mmHg 41%
    02:00 +3°C° 0 mm 0 mps 732 mmHg 43%
    03:00 +3°C° 0 mm 2 mps 732 mmHg 42%
    04:00 +4°C° 0.1 mm 1 mps 732 mmHg 49%
    05:00 +3°C° 0.1 mm 1 mps 733 mmHg 56%
    06:00 +3°C° 0.1 mm 1 mps 733 mmHg 63%
    07:00 +3°C° 0.2 mm 1 mps 733 mmHg 68%
    08:00 +3°C° 0.2 mm 1 mps 733 mmHg 73%
    09:00 +3°C° 0.2 mm 1 mps 733 mmHg 78%
    10:00 +3°C° 0.1 mm 1 mps 734 mmHg 80%
    11:00 +4°C° 0.1 mm 1 mps 734 mmHg 82%
    12:00 +4°C° 0.1 mm 1 mps 734 mmHg 84%
    13:00 +4°C° 0.1 mm 1 mps 734 mmHg 85%
    14:00 +4°C° 0.1 mm 1 mps 733 mmHg 86%
    15:00 +4°C° 0.1 mm 1 mps 733 mmHg 88%
    16:00 +3°C° 0.1 mm 1 mps 734 mmHg 90%
    17:00 +2°C° 0.1 mm 2 mps 734 mmHg 93%
    18:00 +1°C° 0.1 mm 2 mps 734 mmHg 96%
    19:00 +1°C° 0 mm 2 mps 734 mmHg 96%
    20:00 +1°C° 0 mm 2 mps 734 mmHg 96%
    21:00 +1°C° 0 mm 2 mps 734 mmHg 97%
    22:00 +1°C° 0 mm 2 mps 734 mmHg 97%
    23:00 -1°C° 0 mm 2 mps 733 mmHg 96%

    Tomorrow, 21 January, Monday

    Time Temperature Precipitation Wind Pressure Humidity
    00:00 -1°C° 0 mm 2 mps 733 mmHg 96%
    01:00 -1°C° 0 mm 2 mps 733 mmHg 96%
    02:00 -1°C° 0 mm 3 mps 733 mmHg 96%
    03:00 -1°C° 0 mm 3 mps 733 mmHg 96%
    04:00 -1°C° 0 mm 3 mps 733 mmHg 96%
    05:00 -1°C° 0 mm 3 mps 732 mmHg 95%
    06:00 -1°C° 0 mm 3 mps 732 mmHg 95%
    07:00 -1°C° 0 mm 3 mps 732 mmHg 93%
    08:00 -2°C° 0 mm 4 mps 731 mmHg 91%
    09:00 -1°C° 0 mm 4 mps 731 mmHg 90%
    10:00 -1°C° 0 mm 4 mps 730 mmHg 86%
    11:00 0°C° 0 mm 4 mps 730 mmHg 82%
    12:00 +1°C° 0 mm 4 mps 729 mmHg 78%
    13:00 +1°C° 0 mm 4 mps 729 mmHg 77%
    14:00 +3°C° 0 mm 3 mps 728 mmHg 76%
    15:00 +3°C° 0 mm 3 mps 728 mmHg 74%
    16:00 +2°C° 0 mm 3 mps 728 mmHg 79%
    17:00 +2°C° 0 mm 2 mps 728 mmHg 83%
    18:00 +1°C° 0 mm 2 mps 728 mmHg 87%
    19:00 +2°C° 0 mm 1 mps 727 mmHg 85%
    20:00 +2°C° 0 mm 1 mps 727 mmHg 83%
    21:00 +1°C° 0 mm 0 mps 727 mmHg 81%
    22:00 +3°C° 0 mm 1 mps 727 mmHg 76%
    23:00 +3°C° 0 mm 1 mps 727 mmHg 72%

    Day after tomorrow, 22 January, Tuesday

    Time Temperature Precipitation Wind Pressure Humidity
    00:00 +3°C° 0 mm 1 mps 727 mmHg 67%
    01:00 +2°C° 0 mm 2 mps 727 mmHg 67%
    02:00 +2°C° 0 mm 2 mps 727 mmHg 67%
    03:00 +2°C° 0 mm 2 mps 727 mmHg 66%
    04:00 +1°C° 0.2 mm 3 mps 728 mmHg 71%
    05:00 +1°C° 0.2 mm 3 mps 728 mmHg 77%
    06:00 +1°C° 0.2 mm 3 mps 728 mmHg 82%
    07:00 +1°C° 0.5 mm 3 mps 729 mmHg 85%
    08:00 +1°C° 0.5 mm 3 mps 730 mmHg 88%
    09:00 +1°C° 0.5 mm 3 mps 730 mmHg 92%
    10:00 +1°C° 0.6 mm 3 mps 730 mmHg 91%
    11:00 0°C° 0.6 mm 3 mps 731 mmHg 91%
    12:00 0°C° 0.6 mm 3 mps 731 mmHg 91%
    13:00 -1°C° 0.3 mm 3 mps 731 mmHg 91%
    14:00 -1°C° 0.3 mm 3 mps 731 mmHg 91%
    15:00 -1°C° 0.3 mm 2 mps 731 mmHg 91%
    16:00 -2°C° 0.3 mm 2 mps 731 mmHg 91%
    17:00 -2°C° 0.3 mm 2 mps 732 mmHg 92%
    18:00 -3°C° 0.3 mm 2 mps 732 mmHg 92%
    19:00 -3°C° 0.4 mm 2 mps 732 mmHg 93%
    20:00 -3°C° 0.4 mm 2 mps 732 mmHg 93%
    21:00 -4°C° 0.4 mm 2 mps 732 mmHg 93%
    22:00 -5°C° 0.1 mm 3 mps 732 mmHg 94%
    23:00 -5°C° 0.1 mm 3 mps 732 mmHg 94%

    23 January, Wednesday

    Time Temperature Precipitation Wind Pressure Humidity
    00:00 -5°C° 0.1 mm 3 mps 732 mmHg 95%
    01:00 -5°C° 0 mm 3 mps 732 mmHg 95%
    02:00 -5°C° 0 mm 3 mps 732 mmHg 95%
    03:00 -5°C° 0 mm 3 mps 732 mmHg 94%
    04:00 -5°C° 0.1 mm 3 mps 732 mmHg 95%
    05:00 -5°C° 0.1 mm 4 mps 732 mmHg 95%
    06:00 -5°C° 0.1 mm 4 mps 732 mmHg 95%
    07:00 -5°C° 0.1 mm 4 mps 732 mmHg 95%
    08:00 -5°C° 0.1 mm 4 mps 732 mmHg 94%
    09:00 -6°C° 0.1 mm 5 mps 733 mmHg 94%
    10:00 -6°C° 0 mm 5 mps 732 mmHg 93%
    11:00 -6°C° 0 mm 5 mps 732 mmHg 92%
    12:00 -5°C° 0 mm 5 mps 732 mmHg 91%
    13:00 -5°C° 0 mm 5 mps 732 mmHg 90%
    14:00 -5°C° 0 mm 5 mps 732 mmHg 89%
    15:00 -5°C° 0 mm 5 mps 731 mmHg 88%
    16:00 -5°C° 0 mm 5 mps 732 mmHg 88%
    17:00 -6°C° 0 mm 5 mps 732 mmHg 89%
    18:00 -6°C° 0 mm 5 mps 733 mmHg 89%
    19:00 -7°C° 0 mm 5 mps 733 mmHg 89%
    20:00 -7°C° 0 mm 5 mps 733 mmHg 89%
    21:00 -8°C° 0 mm 5 mps 733 mmHg 90%
    22:00 -8°C° 0 mm 5 mps 733 mmHg 91%
    23:00 -8°C° 0 mm 5 mps 733 mmHg 92%

    24 January, Thursday

    Time Temperature Precipitation Wind Pressure Humidity
    00:00 -8°C° 0 mm 5 mps 733 mmHg 94%
    01:00 -7°C° 0 mm 5 mps 733 mmHg 94%
    02:00 -7°C° 0 mm 5 mps 733 mmHg 94%
    03:00 -7°C° 0 mm 5 mps 733 mmHg 94%
    04:00 -6°C° 0 mm 5 mps 733 mmHg 94%
    05:00 -6°C° 0 mm 5 mps 733 mmHg 94%
    06:00 -6°C° 0 mm 5 mps 733 mmHg 94%
    07:00 -6°C° 0 mm 5 mps 733 mmHg 93%
    08:00 -5°C° 0 mm 6 mps 733 mmHg 93%
    09:00 -5°C° 0 mm 6 mps 733 mmHg 92%
    10:00 -4°C° 0 mm 6 mps 732 mmHg 91%
    11:00 -4°C° 0 mm 6 mps 732 mmHg 91%
    12:00 -3°C° 0 mm 6 mps 732 mmHg 90%
    13:00 -3°C° 0 mm 6 mps 731 mmHg 90%
    14:00 -3°C° 0 mm 6 mps 731 mmHg 89%
    15:00 -3°C° 0 mm 6 mps 730 mmHg 89%
    16:00 -3°C° 0 mm 6 mps 730 mmHg 91%
    17:00 -3°C° 0 mm 6 mps 730 mmHg 92%
    18:00 -3°C° 0 mm 6 mps 730 mmHg 93%
    19:00 -3°C° 0 mm 6 mps 730 mmHg 93%
    20:00 -3°C° 0 mm 6 mps 730 mmHg 94%
    21:00 -3°C° 0 mm 6 mps 730 mmHg 94%
    22:00 -3°C° 0 mm 6 mps 729 mmHg 94%
    23:00 -3°C° 0 mm 6 mps 729 mmHg 95%

    25 January, Friday

    Time Temperature Precipitation Wind Pressure Humidity
    00:00 -3°C° 0 mm 6 mps 728 mmHg 95%
    01:00 -2°C° 0 mm 5 mps 728 mmHg 95%
    02:00 -2°C° 0 mm 5 mps 728 mmHg 96%
    03:00 -2°C° 0 mm 5 mps 727 mmHg 96%
    04:00 -2°C° 0 mm 5 mps 727 mmHg 96%
    05:00 -2°C° 0 mm 5 mps 727 mmHg 96%
    06:00 -2°C° 0 mm 5 mps 726 mmHg 96%
    07:00 -2°C° 0 mm 4 mps 726 mmHg 95%
    08:00 -2°C° 0 mm 4 mps 726 mmHg 95%
    09:00 -1°C° 0 mm 4 mps 726 mmHg 95%
    10:00 -1°C° 0 mm 4 mps 726 mmHg 94%
    11:00 -1°C° 0 mm 4 mps 726 mmHg 94%
    12:00 +1°C° 0 mm 3 mps 725 mmHg 94%
    13:00 +1°C° 0 mm 3 mps 725 mmHg 94%
    14:00 +2°C° 0 mm 2 mps 725 mmHg 94%
    15:00 +2°C° 0 mm 2 mps 725 mmHg 93%
    16:00 +1°C° 0 mm 2 mps 725 mmHg 94%
    17:00 +2°C° 0 mm 1 mps 725 mmHg 94%
    18:00 +2°C° 0 mm 1 mps 725 mmHg 94%
    19:00 +1°C° 0 mm 1 mps 725 mmHg 93%
    20:00 +1°C° 0 mm 1 mps 725 mmHg 92%
    21:00 +1°C° 0 mm 1 mps 725 mmHg 91%
    22:00 +1°C° 0 mm 1 mps 724 mmHg 91%
    23:00 -1°C° 0 mm 2 mps 724 mmHg 91%
    Show more